Location: Bratislava
(48.1500°N, 17.1170°E)
Time: 22:36:07
(UTC+01:00)

Envisat - Visible Passes

Search period start: 24 March 2019 00:00
Search period end: 03 April 2019 01:00
Orbit: 764 x 766 km, 98.2° (Epoch: 24 March)

Date Brightness Start Highest point End Pass type
(mag) Time Alt. Az. Time Alt. Az. Time Alt. Az.
24 Mar 6.2 20:09:33 10° WSW 20:11:00 11° W 20:12:26 10° WNW visible
25 Mar 5.5 19:29:44 10° SW 19:33:45 23° W 19:37:48 10° NW visible
26 Mar 4.2 18:51:50 10° S 18:56:43 47° W 19:01:39 10° NNW visible
27 Mar 6.0 19:56:58 10° WSW 19:59:37 14° W 20:02:15 10° NW visible
28 Mar 5.2 19:18:04 10° SSW 19:22:26 29° W 19:26:50 10° NW visible
29 Mar 3.8 18:40:28 10° S 18:45:28 59° W 18:50:31 10° NNW visible
30 Mar 5.8 19:44:53 10° SW 19:48:14 18° W 19:51:37 10° NW visible
31 Mar 4.8 20:06:30 10° SSW 20:11:08 35° W 20:15:48 10° NNW visible
02 Apr 5.6 20:33:02 10° SW 20:36:53 22° W 20:40:47 10° NW visible
